Regional Weather Roundup
Issued by NWS

Home | Current Version | Previous Version | Text Only | Print | Product List | Glossary On
Versions: 1 2 3 4 5 6 7 8 9 10 11 12 13 14 15 16 17 18 19 20 21 22 23 24 25 26 27 28 29 30 31 32 33 34 35 36 37 38 39 40 41 42 43 44 45 46 47 48 49 50
000
ASUS44 KOUN 042300
RWROK

WEATHER ROUNDUP FOR OKLAHOMA
NATIONAL WEATHER SERVICE NORMAN OK
600 PM CDT TUE AUG 04 2015

NOTE: "FAIR" INDICATES FEW OR NO CLOUDS BELOW 12,000 FEET WITH NO
      SIGNIFICANT WEATHER AND/OR OBSTRUCTIONS TO VISIBILITY.

OKZ001>007-009>012-014-015-017-050000-
NORTHWEST OKLAHOMA AND THE PANHANDLE

CITY           SKY/WX    TMP DP  RH WIND       PRES   REMARKS
GAGE           MOSUNNY   88  67  49 S15       29.91S HX  91
GUYMON         SUNNY     89  67  47 S9        29.90F HX  92
$$

OKZ016-021>023-033>039-044-045-050000-
SOUTHWEST OKLAHOMA

CITY           SKY/WX    TMP DP  RH WIND       PRES   REMARKS
LAWTON/REGL    SUNNY     92  68  45 S10       29.88F HX  96
FREDERICK      SUNNY     94  70  45 S14       29.85F HX 100
CLINTON        SUNNY     90  69  50 S12       29.93S HX  94
HOBART         MOSUNNY   93  68  43 SW15      29.90S HX  97
$$

OKZ018>020-024>031-050000-
CENTRAL OKLAHOMA

CITY           SKY/WX    TMP DP  RH WIND       PRES   REMARKS
OKLAHOMA CITY  PTSUNNY   86  72  62 S16G23    29.90S HX  92
OKC/WILEY POST PTSUNNY   88  70  55 S14G21    29.90S HX  93
STILLWATER     SUNNY     87  69  54 SE14      29.90F HX  91
GUTHRIE        SUNNY     89  69  51 S12       29.89F HX  93
$$

OKZ008-013-054>072-050000-
NORTHEAST OKLAHOMA

CITY           SKY/WX    TMP DP  RH WIND       PRES   REMARKS
TULSA          PTSUNNY   82  71  69 SE9       29.91F
TULSA/JONES    PTSUNNY   82  71  69 SE10      29.92F
PONCA CITY     MOSUNNY   84  71  65 SE14      29.90F
MUSKOGEE       CLOUDY    83  73  72 E7        29.94F
$$

OKZ032-040>043-046>053-073>077-050000-
SOUTH CENTRAL/SOUTHEAST OKLAHOMA

CITY           SKY/WX    TMP DP  RH WIND       PRES   REMARKS
MCALESTER      PTSUNNY   88  68  51 SE3       29.93F HX  91
$$



USA.gov is the U.S. government's official web portal to all federal, state and local government web resources and services.